Location: *
(51.4660°N, 0.3360°W)
Time: 01:13:05
(UTC+00:00)

Cosmos 2297 Rocket - Pass Details

Date: 19 September 2019
Orbit: 841 x 842 km, 71.0° (Epoch: 20 October)

Event Time Altitude Azimuth Distance (km) Brightness Sun altitude
Rises 18:58:31 0° 165° (SSE) 3,386 5.1 -8.7°
Reaches altitude 10° 19:01:27 10° 151° (SSE) 2,456 4.2 -9.2°
Maximum altitude 19:05:41 22° 102° (ESE) 1,754 3.2 -9.8°
Drops below altitude 10° 19:09:55 10° 53° (NE) 2,470 4.3 -10.4°
Sets 19:12:51 0° 39° (NE) 3,409 5.1 -10.9°
